Weather History for Russell, KS

Change the Weather History Date:

Friday, September 27, 2013

  Actual Average Record
Temperature  
Mean Temperature 80 °F -  
Max Temperature 91 °F 76 °F 96 °F (1956)
Min Temperature 70 °F 51 °F 37 °F (1996)
Cooling Degree Days 16    
Growing Degree Days 30 (Base 50)    
Moisture  
Dew Point 57 °F    
Average Humidity 46    
Maximum Humidity 87    
Minimum Humidity 31    
Precipitation  
Precipitation 0.08 in - - ()
Sea Level Pressure  
Sea Level Pressure 29.69 in    
Wind  
Wind Speed 22 mph (South)    
Max Wind Speed 33 mph    
Max Gust Speed 44 mph    
Visibility 9 miles    
Events Rain    
Averages and records for this station are not official NWS values.
T = Trace of Precipitation, MM = Missing Value Source: NWS Daily Summary

Daily Weather History Graph

Daily Weather History Graph

Search for Another Location

Airport:

Trip Planner

Search our weather history database for the weather conditions in past years. The results will help you decide how hot, cold, wet, or windy it might be!

Date:

Astronomy

Sep. 27, 2013 Rise Set
Actual Time 7:27 AM CDT 7:23 PM CDT
Civil Twilight 7:01 AM CDT 7:50 PM CDT
Nautical Twilight 6:30 AM CDT 8:21 PM CDT
Astronomical Twilight 5:58 AM CDT 8:52 PM CDT
Moon 12:27 AM CDT (9/27) 3:00 PM CDT (9/27)
Length of Visible Light 12h 49m
Length of Day
11h 56m
Last Quarter, 45% of the Moon is Illuminated
Sep 27
Last Quarter
Oct 4
New
Oct 11
First Quarter
Oct 18
Full
Oct 26
Last Quarter

Hourly Weather History & Observations

Time (CDT) Temp. Heat Index Dew Point Humidity Pressure Visibility Wind Dir Wind Speed Gust Speed Precip Events Conditions
12:53 AM 78.1 °F - 55.9 °F 46% 29.67 in 10.0 mi SSE 23.0 mph 31.1 mph N/A   Clear
1:53 AM 75.9 °F - 55.0 °F 48% 29.68 in 10.0 mi South 18.4 mph 27.6 mph N/A   Clear
2:53 AM 75.9 °F - 55.0 °F 48% 29.69 in 10.0 mi SSE 23.0 mph 32.2 mph N/A   Clear
3:53 AM 73.9 °F - 54.0 °F 50% 29.68 in 10.0 mi South 24.2 mph 29.9 mph N/A   Clear
4:53 AM 72.0 °F - 53.1 °F 51% 29.70 in 10.0 mi South 17.3 mph 24.2 mph N/A   Clear
5:53 AM 72.0 °F - 52.0 °F 49% 29.71 in 10.0 mi South 17.3 mph 25.3 mph N/A   Clear
6:53 AM 73.0 °F - 52.0 °F 48% 29.71 in 10.0 mi South 19.6 mph 31.1 mph N/A   Clear
7:53 AM 70.0 °F - 52.0 °F 53% 29.73 in 10.0 mi South 17.3 mph - N/A   Clear
8:53 AM 73.0 °F - 52.0 °F 48% 29.73 in 10.0 mi South 18.4 mph - N/A   Clear
9:53 AM 79.0 °F - 54.0 °F 42% 29.73 in 10.0 mi South 21.9 mph 33.4 mph N/A   Clear
10:53 AM 82.0 °F 81.6 °F 55.9 °F 41% 29.73 in 10.0 mi South 24.2 mph 29.9 mph N/A   Clear
11:53 AM 86.0 °F 84.9 °F 57.0 °F 37% 29.72 in 10.0 mi South 26.5 mph 33.4 mph N/A   Clear
12:53 PM 89.1 °F 87.7 °F 57.0 °F 34% 29.70 in 10.0 mi South 23.0 mph 36.8 mph N/A   Clear
1:53 PM 90.0 °F 88.8 °F 57.9 °F 34% 29.68 in 10.0 mi South 27.6 mph 36.8 mph N/A   Clear
2:53 PM 90.0 °F 88.6 °F 57.0 °F 33% 29.67 in 8.0 mi South 26.5 mph 36.8 mph N/A   Clear
3:41 PM 91.4 °F 89.9 °F 57.2 °F 31% 29.72 in 1.8 mi SSW 26.5 mph 34.5 mph N/A   Haze
3:53 PM 89.1 °F 88.0 °F 57.9 °F 35% 29.66 in 7.0 mi South 26.5 mph 33.4 mph N/A   Clear
4:01 PM 89.6 °F 88.9 °F 59.0 °F 36% 29.72 in 2.5 mi South 25.3 mph 39.1 mph 0.00 in Rain Light Rain
4:09 PM 89.6 °F 88.1 °F 57.2 °F 33% 29.72 in 4.0 mi South 25.3 mph 33.4 mph 0.00 in   Haze
4:53 PM 89.1 °F 88.0 °F 57.9 °F 35% 29.65 in 10.0 mi South 21.9 mph 38.0 mph 0.00 in   Clear
5:53 PM 87.1 °F 86.1 °F 57.9 °F 37% 29.64 in 10.0 mi South 33.4 mph 39.1 mph N/A   Partly Cloudy
6:53 PM 82.9 °F 83.2 °F 60.1 °F 46% 29.65 in 10.0 mi SSE 20.7 mph 28.8 mph N/A   Clear
7:53 PM 82.0 °F 82.4 °F 60.1 °F 47% 29.65 in 10.0 mi SSE 18.4 mph 27.6 mph N/A   Clear
8:53 PM 80.1 °F 81.1 °F 61.0 °F 52% 29.68 in 10.0 mi SSE 19.6 mph 31.1 mph N/A   Clear
9:53 PM 79.0 °F - 61.0 °F 54% 29.67 in 10.0 mi SSE 20.7 mph 29.9 mph N/A   Mostly Cloudy
10:53 PM 72.0 °F - 64.0 °F 76% 29.67 in 10.0 mi SSE 20.7 mph - 0.01 in Rain Light Rain
11:53 PM 70.0 °F - 66.0 °F 87% 29.64 in 6.0 mi South 29.9 mph 43.7 mph 0.07 in Rain Rain